Preview of NWS' New Version of Forecast
This preview is not operational and should not be used for support decisions.

Regional Weather Roundup (RWR)

Issued by National Weather Service (NWS)

                            
000
ASCA42 TJSJ 200110
RWRPR 
PUERTO RICO/U.S. VIRGIN ISLANDS HOURLY WEATHER ROUNDUP
NATIONAL WEATHER SERVICE SAN JUAN PR
900 PM AST MON AUG 19 2019

PRZ001>002-007>008-010-200200-
PUERTO RICO
  
CITY           SKY/WX    TMP DP  RH WIND       PRES   REMARKS
SAN JUAN LMM   MOCLDY    82  79  89 E12       30.02R HX  93           
AGUADILLA      CLEAR     75  75 100 E5        30.03R                  
CEIBA          MOCLDY    82  79  89 NE10      30.04R HX  93           
$$

VIZ001>002-200200-
U.S. VIRGIN ISLANDS
  
CITY           SKY/WX    TMP DP  RH WIND       PRES   REMARKS
CHARLOTTE AMA  CLEAR     82  79  89 E9        30.02R HX  93           
CHRISTIANSTED  PTCLDY    82  75  78 NE7       30.02R                  
$$

HOURLY WEATHER ROUNDUP FOR THE NEWS MEDIA
  
CITY           SKY/WX    TMP DP  RH WIND       PRES   REMARKS
ORLANDO        FAIR      81  74  79 CALM      30.07R                  
NEW YORK       MOCLDY    77  72  84 W7        29.99R                  
NEWARK         MOCLDY    79  69  71 SW7       29.98R                  
CHICAGO        MOCLDY    78  68  71 E8        29.99R                  
HARTFORD       FAIR      71  68  90 CALM      29.94F                  
BOSTON         FAIR      80  66  62 SW14G23   29.94R                  
DALLAS         CLEAR     97  68  38 SE13      29.92R HX 102           
PHILADELPHIA   MOCLDY    82  73  74 SE3       30.00R                  
LOS ANGELES    MOSUNNY   71  62  73 W14       29.90F                  
WASHINGTON DC  MOCLDY    86  71  60 NE5       30.01R THUNDER HX  91